Terminal Aerodrome Forecast
Issued by NWS

Home | Current Version | Previous Version | Graphics & Text | Print | Product List | Glossary On
Versions: 1 2 3 4 5 6 7 8 9 10 11 12 13 14 15 16 17 18 19 20 21 22 23 24 25 26 27 28 29 30 31 32
875
FTUS43 KLOT 162332
TAFORD
TAF
KORD 162332Z 1700/1806 08006KT 3SM -SHRA BR OVC005
     FM170100 10009KT 1SM SHRA BR OVC003
      TEMPO 1702/1704 09012KT 1/2SM TSRA FG OVC003CB
     FM170600 VRB03KT 3/4SM -RADZ BR OVC003
      TEMPO 1706/1710 1/2SM FG
     FM171300 24010KT 2SM -DZ BR OVC003
     FM172000 27008KT 4SM BR VCSH OVC007
     FM180300 30008KT 4SM -DZ BR OVC007=

USA.gov is the U.S. government's official web portal to all federal, state and local government web resources and services.